Change the Weather History Date:

Wednesday, October 23, 2013

  Actual Average Record
Temperature  
Mean Temperature 36 °F -  
Max Temperature 39 °F 53 °F 69 °F (2014)
Min Temperature 32 °F 37 °F 27 °F (2002)
Degree Days  
Heating Degree Days 30    
Moisture  
Dew Point 24 °F    
Average Humidity 64    
Maximum Humidity 82    
Minimum Humidity 48    
Precipitation  
Precipitation 0.00 in - - ()
Sea Level Pressure  
Sea Level Pressure 30.05 in    
Wind  
Wind Speed 7 mph (NW)    
Max Wind Speed 14 mph    
Max Gust Speed 18 mph    
Visibility 10 miles    
Events      
Averages and records for this station are not official NWS values.
T = Trace of Precipitation, MM = Missing Value Source: NWS Daily Summary

Daily Weather History Graph

Daily Weather History Graph

Search for Another Location

Airport or City:

Trip Planner

Search our weather history database for the weather conditions in past years. The results will help you decide how hot, cold, wet, or windy it might be!

Date:

Astronomy

Oct. 23, 2013 Rise Set
Actual Time 7:40 AM CDT 6:15 PM CDT
Civil Twilight 7:10 AM CDT 6:45 PM CDT
Nautical Twilight 6:36 AM CDT 7:19 PM CDT
Astronomical Twilight 6:02 AM CDT 7:53 PM CDT
Moon 9:40 PM CDT (10/23) 12:04 PM CDT (10/23)
Length of Visible Light 11h 35m
Length of Day
10h 35m
Waning Gibbous, 79% of the Moon is Illuminated
Oct 23
Waning Gibbous
Oct 26
Last Quarter
Nov 3
New
Nov 9
First Quarter
Nov 17
Full

Hourly Weather History & Observations

Time (CDT) Temp. Windchill Dew Point Humidity Pressure Visibility Wind Dir Wind Speed Gust Speed Precip Events Conditions
12:53 AM 36.0 °F 33.3 °F 28.9 °F 76% 30.03 in 10.0 mi NW 3.5 mph - N/A   Overcast
1:53 AM 33.1 °F 28.7 °F 28.0 °F 82% 30.03 in 10.0 mi West 4.6 mph - N/A   Mostly Cloudy
2:53 AM 32.0 °F 27.5 °F 27.0 °F 82% 30.03 in 10.0 mi WSW 4.6 mph - N/A   Mostly Cloudy
3:53 AM 35.1 °F 29.3 °F 28.0 °F 76% 30.02 in 10.0 mi WNW 6.9 mph - N/A   Overcast
4:53 AM 35.1 °F 29.3 °F 28.0 °F 76% 30.01 in 10.0 mi West 6.9 mph - N/A   Overcast
5:53 AM 35.1 °F 30.1 °F 28.0 °F 76% 30.02 in 10.0 mi West 5.8 mph - N/A   Overcast
6:53 AM 34.0 °F 28.0 °F 28.0 °F 79% 30.03 in 10.0 mi West 6.9 mph - N/A   Overcast
7:53 AM 34.0 °F 28.0 °F 28.0 °F 79% 30.03 in 10.0 mi West 6.9 mph - N/A   Overcast
8:53 AM 34.0 °F 28.8 °F 28.0 °F 79% 30.04 in 10.0 mi WNW 5.8 mph - N/A   Overcast
9:53 AM 36.0 °F 30.3 °F 28.9 °F 76% 30.05 in 10.0 mi NW 6.9 mph - N/A   Overcast
10:32 AM 37.4 °F 30.3 °F 26.6 °F 65% 30.02 in 10.0 mi NW 10.4 mph - N/A   Overcast
10:40 AM 37.4 °F 29.3 °F 24.8 °F 60% 30.02 in 10.0 mi NW 12.7 mph - N/A   Overcast
10:53 AM 37.9 °F 30.0 °F 24.1 °F 57% 30.04 in 10.0 mi NNW 12.7 mph - N/A   Overcast
11:53 AM 37.0 °F 29.3 °F 24.1 °F 59% 30.05 in 10.0 mi WNW 11.5 mph - N/A   Overcast
12:53 PM 37.0 °F 30.4 °F 21.9 °F 54% 30.04 in 10.0 mi NW 9.2 mph - N/A   Overcast
1:53 PM 39.0 °F 31.0 °F 21.9 °F 50% 30.04 in 10.0 mi WNW 13.8 mph - N/A   Overcast
2:53 PM 37.9 °F 31.5 °F 19.9 °F 48% 30.04 in 10.0 mi WNW 9.2 mph - N/A   Overcast
3:53 PM 37.0 °F 30.4 °F 21.0 °F 52% 30.05 in 10.0 mi WNW 9.2 mph 18.4 mph N/A   Overcast
4:53 PM 36.0 °F 29.0 °F 19.9 °F 52% 30.07 in 10.0 mi NW 9.2 mph - N/A   Overcast
5:53 PM 35.1 °F 29.3 °F 19.9 °F 54% 30.09 in 10.0 mi North 6.9 mph - N/A   Overcast
6:53 PM 34.0 °F 28.8 °F 19.0 °F 54% 30.10 in 10.0 mi NNW 5.8 mph - N/A   Overcast
7:53 PM 34.0 °F 29.8 °F 21.0 °F 59% 30.11 in 10.0 mi North 4.6 mph - N/A   Overcast
8:53 PM 34.0 °F 31.0 °F 21.0 °F 59% 30.11 in 10.0 mi NW 3.5 mph - N/A   Overcast
9:53 PM 35.1 °F 27.9 °F 21.0 °F 57% 30.11 in 10.0 mi NNW 9.2 mph - N/A   Overcast
10:53 PM 34.0 °F 28.8 °F 19.9 °F 56% 30.12 in 10.0 mi NNW 5.8 mph - N/A   Overcast
11:53 PM 34.0 °F 29.8 °F 19.9 °F 56% 30.12 in 10.0 mi NW 4.6 mph - N/A   Overcast